Time,TemperatureF,DewpointF,PressureIn,WindDirection,WindDirectionDegrees,WindSpeedMPH,WindSpeedGustMPH,Humidity,HourlyPrecipIn,Conditions,Clouds,dailyrainin,SoftwareType,DateUTC
2013-02-23 00:00:00,31.8,26.3,30.03,SE,131,0.0,6.0,80,0.00,CLR,,0.00,WeatherDisplay:10.37,2013-02-23 05:00:00,
2013-02-23 00:05:00,32.0,26.2,30.04,South,173,0.3,6.0,79,0.00,CLR,,0.00,WeatherDisplay:10.37,2013-02-23 05:05:00,
2013-02-23 00:10:00,32.1,26.6,30.04,SE,136,0.5,6.0,80,0.00,CLR,,0.00,WeatherDisplay:10.37,2013-02-23 05:10:00,
2013-02-23 00:15:00,32.2,26.4,30.03,East,84,1.1,6.0,79,0.00,CLR,,0.00,WeatherDisplay:10.37,2013-02-23 05:15:00,
2013-02-23 00:20:00,32.3,26.5,30.03,SW,217,1.7,6.0,79,0.00,CLR,,0.00,WeatherDisplay:10.37,2013-02-23 05:20:00,
2013-02-23 00:25:00,32.4,26.6,30.03,SE,138,0.6,6.0,79,0.00,CLR,,0.00,WeatherDisplay:10.37,2013-02-23 05:25:00,
2013-02-23 00:30:00,32.5,26.7,30.02,ENE,73,0.1,6.0,79,0.00,CLR,,0.00,WeatherDisplay:10.37,2013-02-23 05:30:00,
2013-02-23 00:35:00,32.4,26.6,30.02,East,85,2.1,6.0,79,0.00,CLR,,0.00,WeatherDisplay:10.37,2013-02-23 05:35:00,
2013-02-23 00:40:00,32.5,26.7,30.02,SSE,167,0.4,6.0,79,0.00,CLR,,0.00,WeatherDisplay:10.37,2013-02-23 05:40:00,
2013-02-23 00:45:00,32.5,26.7,30.03,SW,233,0.2,6.0,79,0.00,CLR,,0.00,WeatherDisplay:10.37,2013-02-23 05:45:00,
2013-02-23 00:50:00,32.5,26.7,30.03,SSE,158,0.5,6.0,79,0.00,CLR,,0.00,WeatherDisplay:10.37,2013-02-23 05:50:00,
2013-02-23 00:55:00,32.5,26.7,30.03,SSE,162,1.2,6.0,79,0.00,CLR,,0.00,WeatherDisplay:10.37,2013-02-23 05:55:00,
2013-02-23 01:00:00,32.7,26.9,30.03,South,184,0.8,6.0,79,0.00,CLR,,0.00,WeatherDisplay:10.37,2013-02-23 06:00:00,
2013-02-23 01:05:00,32.8,27.0,30.03,SSW,197,0.1,6.0,79,0.00,CLR,,0.00,WeatherDisplay:10.37,2013-02-23 06:05:00,
2013-02-23 01:10:00,33.1,27.3,30.03,SSE,165,0.3,7.0,79,0.00,CLR,,0.00,WeatherDisplay:10.37,2013-02-23 06:10:00,
2013-02-23 01:15:00,33.3,27.2,30.03,SSW,198,2.6,7.0,78,0.00,CLR,,0.00,WeatherDisplay:10.37,2013-02-23 06:15:00,
2013-02-23 01:20:00,33.5,27.4,30.02,SW,225,2.2,10.4,78,0.00,CLR,,0.00,WeatherDisplay:10.37,2013-02-23 06:20:00,
2013-02-23 01:25:00,33.6,27.2,30.03,South,173,3.0,10.4,77,0.00,CLR,,0.00,WeatherDisplay:10.37,2013-02-23 06:25:00,
2013-02-23 01:30:00,33.7,27.3,30.03,SE,146,2.7,10.4,77,0.00,CLR,,0.00,WeatherDisplay:10.37,2013-02-23 06:30:00,
2013-02-23 01:35:00,33.7,27.3,30.02,South,174,1.9,10.4,77,0.00,CLR,,0.00,WeatherDisplay:10.37,2013-02-23 06:35:00,
2013-02-23 01:40:00,33.7,27.3,30.03,SW,235,4.3,10.4,77,0.00,CLR,,0.00,WeatherDisplay:10.37,2013-02-23 06:40:00,
2013-02-23 01:45:00,33.8,27.4,30.02,SW,217,3.6,10.4,77,0.00,CLR,,0.00,WeatherDisplay:10.37,2013-02-23 06:45:00,
2013-02-23 01:50:00,33.9,27.1,30.02,SSE,165,1.9,10.4,76,0.00,CLR,,0.00,WeatherDisplay:10.37,2013-02-23 06:50:00,
2013-02-23 01:55:00,34.0,27.2,30.02,SSW,212,1.9,10.4,76,0.00,CLR,,0.00,WeatherDisplay:10.37,2013-02-23 06:55:00,
2013-02-23 02:00:00,34.0,27.2,30.03,SSW,194,0.7,10.4,76,0.00,CLR,,0.00,WeatherDisplay:10.37,2013-02-23 07:00:00,
2013-02-23 02:05:00,34.0,27.2,30.02,SW,217,1.9,10.4,76,0.00,CLR,,0.00,WeatherDisplay:10.37,2013-02-23 07:05:00,
2013-02-23 02:10:00,34.0,27.2,30.02,SW,220,1.7,10.4,76,0.00,CLR,,0.00,WeatherDisplay:10.37,2013-02-23 07:10:00,
2013-02-23 02:15:00,34.0,27.2,30.01,SE,143,2.7,10.4,76,0.00,CLR,,0.00,WeatherDisplay:10.37,2013-02-23 07:15:00,
2013-02-23 02:20:00,34.1,27.3,30.02,SW,217,1.2,10.4,76,0.00,CLR,,0.00,WeatherDisplay:10.37,2013-02-23 07:20:00,
2013-02-23 02:25:00,34.0,27.2,30.02,SW,228,3.3,10.4,76,0.00,CLR,,0.00,WeatherDisplay:10.37,2013-02-23 07:25:00,
2013-02-23 02:30:00,34.1,27.3,30.02,SW,224,1.9,10.4,76,0.00,CLR,,0.00,WeatherDisplay:10.37,2013-02-23 07:30:00,
2013-02-23 02:35:00,34.0,27.2,30.02,South,184,1.8,10.4,76,0.00,CLR,,0.00,WeatherDisplay:10.37,2013-02-23 07:35:00,
2013-02-23 02:40:00,34.0,27.5,30.02,SE,135,1.3,10.4,77,0.00,CLR,,0.00,WeatherDisplay:10.37,2013-02-23 07:40:00,
2013-02-23 02:45:00,33.9,27.8,30.02,SSW,211,1.2,10.4,78,0.00,CLR,,0.00,WeatherDisplay:10.37,2013-02-23 07:45:00,
2013-02-23 02:50:00,33.8,28.0,30.02,WNW,284,1.6,10.4,79,0.00,CLR,,0.00,WeatherDisplay:10.37,2013-02-23 07:50:00,
2013-02-23 02:55:00,33.6,27.8,30.01,SSE,166,0.6,10.4,79,0.00,CLR,,0.00,WeatherDisplay:10.37,2013-02-23 07:55:00,
2013-02-23 03:00:00,33.5,28.0,30.01,East,95,1.9,10.4,80,0.00,CLR,,0.00,WeatherDisplay:10.37,2013-02-23 08:00:00,
2013-02-23 03:05:00,33.5,27.7,30.01,SSE,158,1.6,10.4,79,0.00,CLR,,0.00,WeatherDisplay:10.37,2013-02-23 08:05:00,
2013-02-23 03:10:00,33.5,27.7,30.01,South,187,0.7,10.4,79,0.00,CLR,,0.00,WeatherDisplay:10.37,2013-02-23 08:10:00,
2013-02-23 03:15:00,33.5,28.0,30.01,South,184,3.6,10.4,80,0.00,CLR,,0.00,WeatherDisplay:10.37,2013-02-23 08:15:00,
2013-02-23 03:20:00,33.5,28.0,30.01,South,190,2.1,10.4,80,0.00,CLR,,0.00,WeatherDisplay:10.37,2013-02-23 08:20:00,
2013-02-23 03:25:00,33.4,27.9,30.01,SSW,203,1.6,10.4,80,0.00,CLR,,0.00,WeatherDisplay:10.37,2013-02-23 08:25:00,
2013-02-23 03:30:00,33.3,27.8,30.01,SSE,148,2.3,10.4,80,0.00,CLR,,0.00,WeatherDisplay:10.37,2013-02-23 08:30:00,
2013-02-23 03:35:00,33.3,28.1,30.01,SSW,212,3.0,10.4,81,0.00,CLR,,0.00,WeatherDisplay:10.37,2013-02-23 08:35:00,
2013-02-23 03:40:00,33.2,28.3,30.02,SSW,194,1.2,10.4,82,0.00,CLR,,0.00,WeatherDisplay:10.37,2013-02-23 08:40:00,
2013-02-23 03:45:00,33.0,28.4,30.01,SSW,205,1.4,10.4,83,0.00,CLR,,0.00,WeatherDisplay:10.37,2013-02-23 08:45:00,
2013-02-23 03:50:00,32.8,28.5,30.01,South,172,1.5,10.4,84,0.00,CLR,,0.00,WeatherDisplay:10.37,2013-02-23 08:50:00,
2013-02-23 03:55:00,32.7,28.7,30.01,SSW,206,1.8,10.4,85,0.00,CLR,,0.00,WeatherDisplay:10.37,2013-02-23 08:55:00,
2013-02-23 04:00:00,32.5,28.8,30.01,South,172,1.9,10.4,86,0.00,CLR,,0.00,WeatherDisplay:10.37,2013-02-23 09:00:00,
2013-02-23 04:05:00,32.4,28.7,30.01,SW,229,1.7,10.4,86,0.00,CLR,,0.00,WeatherDisplay:10.37,2013-02-23 09:05:00,
2013-02-23 04:10:00,32.3,28.6,30.00,SE,143,0.4,10.4,86,0.00,CLR,,0.00,WeatherDisplay:10.37,2013-02-23 09:10:00,
2013-02-23 04:15:00,32.2,28.5,30.00,SW,226,1.0,10.4,86,0.00,CLR,,0.00,WeatherDisplay:10.37,2013-02-23 09:15:00,
2013-02-23 04:20:00,32.2,28.8,29.99,ESE,107,1.8,10.4,87,0.00,CLR,,0.00,WeatherDisplay:10.37,2013-02-23 09:20:00,
2013-02-23 04:25:00,32.2,28.8,30.00,SE,145,1.3,10.4,87,0.00,CLR,,0.00,WeatherDisplay:10.37,2013-02-23 09:25:00,
2013-02-23 04:30:00,32.3,29.1,30.00,SSE,167,1.5,10.4,88,0.00,CLR,,0.00,WeatherDisplay:10.37,2013-02-23 09:30:00,
2013-02-23 04:35:00,32.3,29.1,30.00,SSE,165,0.5,10.4,88,0.00,CLR,,0.00,WeatherDisplay:10.37,2013-02-23 09:35:00,
2013-02-23 04:40:00,32.2,29.3,30.00,ESE,120,0.9,10.4,89,0.00,CLR,,0.00,WeatherDisplay:10.37,2013-02-23 09:40:00,
2013-02-23 04:45:00,32.2,29.3,30.00,East,101,1.5,10.4,89,0.00,CLR,,0.00,WeatherDisplay:10.37,2013-02-23 09:45:00,
2013-02-23 04:50:00,32.1,29.2,30.00,South,170,0.8,10.4,89,0.00,CLR,,0.00,WeatherDisplay:10.37,2013-02-23 09:50:00,
2013-02-23 04:55:00,32.1,29.2,29.99,ESE,119,0.0,10.4,89,0.00,CLR,,0.00,WeatherDisplay:10.37,2013-02-23 09:55:00,
2013-02-23 05:00:00,32.1,29.2,29.99,South,172,1.7,10.4,89,0.00,CLR,,0.00,WeatherDisplay:10.37,2013-02-23 10:00:00,
2013-02-23 05:05:00,32.2,29.0,30.00,SSW,203,0.4,10.4,88,0.00,CLR,,0.00,WeatherDisplay:10.37,2013-02-23 10:05:00,
2013-02-23 05:10:00,32.2,29.0,30.00,SSE,162,0.9,10.4,88,0.00,CLR,,0.00,WeatherDisplay:10.37,2013-02-23 10:10:00,
2013-02-23 05:15:00,32.3,28.9,30.00,SSE,149,1.8,10.4,87,0.00,CLR,,0.00,WeatherDisplay:10.37,2013-02-23 10:15:00,
2013-02-23 05:20:00,32.4,28.7,30.00,East,97,1.0,10.4,86,0.00,CLR,,0.00,WeatherDisplay:10.37,2013-02-23 10:20:00,
2013-02-23 05:25:00,32.4,28.7,30.00,SE,143,0.4,10.4,86,0.00,CLR,,0.00,WeatherDisplay:10.37,2013-02-23 10:25:00,
2013-02-23 05:30:00,32.4,28.7,29.99,SSE,165,0.2,10.4,86,0.00,CLR,,0.00,WeatherDisplay:10.37,2013-02-23 10:30:00,
2013-02-23 05:35:00,32.5,28.8,29.99,SE,132,1.2,10.4,86,0.00,CLR,,0.00,WeatherDisplay:10.37,2013-02-23 10:35:00,
2013-02-23 05:40:00,32.5,28.8,29.99,SE,135,0.6,10.4,86,0.00,CLR,,0.00,WeatherDisplay:10.37,2013-02-23 10:40:00,
2013-02-23 05:45:00,32.4,28.7,29.99,South,170,1.0,10.4,86,0.00,CLR,,0.00,WeatherDisplay:10.37,2013-02-23 10:45:00,
2013-02-23 05:50:00,32.4,28.7,29.98,SSE,150,0.5,10.4,86,0.00,CLR,,0.00,WeatherDisplay:10.37,2013-02-23 10:50:00,
2013-02-23 05:55:00,32.3,28.6,29.98,SE,141,0.5,10.4,86,0.00,CLR,,0.00,WeatherDisplay:10.37,2013-02-23 10:55:00,
2013-02-23 06:00:00,32.4,28.7,29.98,South,177,2.6,10.4,86,0.00,CLR,,0.00,WeatherDisplay:10.37,2013-02-23 11:00:00,
2013-02-23 06:05:00,32.4,28.7,29.98,SE,129,0.5,10.4,86,0.00,CLR,,0.00,WeatherDisplay:10.37,2013-02-23 11:05:00,
2013-02-23 06:10:00,32.5,28.5,29.98,SSE,160,0.7,10.4,85,0.00,CLR,,0.00,WeatherDisplay:10.37,2013-02-23 11:10:00,
2013-02-23 06:15:00,32.6,28.6,29.98,East,90,1.0,10.4,85,0.00,CLR,,0.00,WeatherDisplay:10.37,2013-02-23 11:15:00,
2013-02-23 06:20:00,32.6,28.6,29.98,East,84,1.3,10.4,85,0.00,CLR,,0.00,WeatherDisplay:10.37,2013-02-23 11:20:00,
2013-02-23 06:25:00,32.6,28.6,29.98,SSW,207,0.6,10.4,85,0.00,CLR,,0.00,WeatherDisplay:10.37,2013-02-23 11:25:00,
2013-02-23 06:30:00,32.5,28.8,29.98,SSW,207,1.7,10.4,86,0.00,CLR,,0.00,WeatherDisplay:10.37,2013-02-23 11:30:00,
2013-02-23 06:35:00,32.5,28.8,29.98,East,92,2.2,10.4,86,0.00,CLR,,0.00,WeatherDisplay:10.37,2013-02-23 11:35:00,
2013-02-23 06:40:00,32.6,28.9,29.98,South,182,0.2,10.4,86,0.00,CLR,,0.00,WeatherDisplay:10.37,2013-02-23 11:40:00,
2013-02-23 06:45:00,32.6,28.6,29.99,SSW,211,0.0,10.4,85,0.00,CLR,,0.00,WeatherDisplay:10.37,2013-02-23 11:45:00,
2013-02-23 06:50:00,32.7,28.7,29.98,SW,224,0.4,10.4,85,0.00,CLR,,0.00,WeatherDisplay:10.37,2013-02-23 11:50:00,
2013-02-23 06:55:00,32.7,28.7,29.99,SE,131,2.1,10.4,85,0.00,CLR,,0.00,WeatherDisplay:10.37,2013-02-23 11:55:00,
2013-02-23 07:00:00,32.9,28.9,29.98,SSE,158,1.0,10.4,85,0.00,CLR,,0.00,WeatherDisplay:10.37,2013-02-23 12:00:00,
2013-02-23 07:05:00,32.9,28.6,29.98,SSE,158,0.1,10.4,84,0.00,CLR,,0.00,WeatherDisplay:10.37,2013-02-23 12:05:00,
2013-02-23 07:10:00,32.9,28.6,29.98,SSE,155,0.4,10.4,84,0.00,CLR,,0.00,WeatherDisplay:10.37,2013-02-23 12:10:00,
2013-02-23 07:15:00,33.0,28.7,29.97,East,99,1.8,10.4,84,0.00,CLR,,0.00,WeatherDisplay:10.37,2013-02-23 12:15:00,
2013-02-23 07:20:00,33.1,28.8,29.97,SW,232,0.5,10.4,84,0.00,CLR,,0.00,WeatherDisplay:10.37,2013-02-23 12:20:00,
2013-02-23 07:25:00,33.1,28.8,29.97,SE,135,1.6,10.4,84,0.00,CLR,,0.00,WeatherDisplay:10.37,2013-02-23 12:25:00,
2013-02-23 07:30:00,33.2,28.9,29.98,SW,232,0.9,10.4,84,0.00,CLR,,0.00,WeatherDisplay:10.37,2013-02-23 12:30:00,
2013-02-23 07:35:00,33.3,28.7,29.98,SSE,165,1.4,10.4,83,0.00,CLR,,0.00,WeatherDisplay:10.37,2013-02-23 12:35:00,
2013-02-23 07:40:00,33.3,28.7,29.98,SSE,149,0.0,10.4,83,0.00,CLR,,0.00,WeatherDisplay:10.37,2013-02-23 12:40:00,
2013-02-23 07:45:00,33.4,28.8,29.98,SE,139,1.1,10.4,83,0.00,CLR,,0.00,WeatherDisplay:10.37,2013-02-23 12:45:00,
2013-02-23 07:50:00,33.5,28.9,29.99,SW,214,0.5,10.4,83,0.00,CLR,,0.00,WeatherDisplay:10.37,2013-02-23 12:50:00,
2013-02-23 07:55:00,33.6,29.0,29.99,SE,129,0.6,10.4,83,0.00,CLR,,0.00,WeatherDisplay:10.37,2013-02-23 12:55:00,
2013-02-23 08:00:00,33.6,29.0,29.99,SW,214,1.1,10.4,83,0.00,CLR,,0.00,WeatherDisplay:10.37,2013-02-23 13:00:00,
2013-02-23 08:05:00,33.7,29.1,29.99,WSW,249,0.1,10.4,83,0.00,CLR,,0.00,WeatherDisplay:10.37,2013-02-23 13:05:00,
2013-02-23 08:10:00,33.7,29.1,29.99,SW,222,0.8,10.4,83,0.00,CLR,,0.00,WeatherDisplay:10.37,2013-02-23 13:10:00,
2013-02-23 08:15:00,33.7,29.1,29.99,South,169,0.5,10.4,83,0.00,CLR,,0.00,WeatherDisplay:10.37,2013-02-23 13:15:00,
2013-02-23 08:20:00,33.7,29.1,29.99,SSE,165,0.1,10.4,83,0.00,CLR,,0.00,WeatherDisplay:10.37,2013-02-23 13:20:00,
2013-02-23 08:25:00,33.7,29.4,29.99,SSE,165,0.0,10.4,84,0.00,CLR,,0.00,WeatherDisplay:10.37,2013-02-23 13:25:00,
2013-02-23 08:30:00,33.7,29.4,29.99,SW,226,1.1,10.4,84,0.00,CLR,,0.00,WeatherDisplay:10.37,2013-02-23 13:30:00,
2013-02-23 08:35:00,33.6,29.6,29.99,WSW,240,0.4,10.4,85,0.00,CLR,,0.00,WeatherDisplay:10.37,2013-02-23 13:35:00,
2013-02-23 08:40:00,33.5,29.8,29.99,SW,217,0.0,10.4,86,0.00,CLR,,0.00,WeatherDisplay:10.37,2013-02-23 13:40:00,
2013-02-23 08:45:00,33.5,30.0,29.99,SSW,208,0.0,10.4,87,0.00,CLR,,0.00,WeatherDisplay:10.37,2013-02-23 13:45:00,
2013-02-23 08:50:00,33.3,29.8,29.99,SSW,207,0.0,10.4,87,0.00,CLR,,0.00,WeatherDisplay:10.37,2013-02-23 13:50:00,
2013-02-23 08:55:00,33.3,30.1,29.99,South,172,0.4,10.4,88,0.00,CLR,,0.00,WeatherDisplay:10.37,2013-02-23 13:55:00,
2013-02-23 09:00:00,33.2,30.3,29.99,SSE,155,0.7,10.4,89,0.00,CLR,,0.00,WeatherDisplay:10.37,2013-02-23 14:00:00,
2013-02-23 09:05:00,33.3,30.4,29.98,WNW,290,0.0,10.4,89,0.00,CLR,,0.00,WeatherDisplay:10.37,2013-02-23 14:05:00,
2013-02-23 09:10:00,33.3,30.7,29.99,SW,225,0.6,10.4,90,0.00,CLR,,0.00,WeatherDisplay:10.37,2013-02-23 14:10:00,
2013-02-23 09:15:00,33.2,30.6,29.98,SW,228,1.2,10.4,90,0.00,CLR,,0.00,WeatherDisplay:10.37,2013-02-23 14:15:00,
2013-02-23 09:20:00,33.2,30.6,29.98,South,183,0.1,10.4,90,0.00,CLR,,0.00,WeatherDisplay:10.37,2013-02-23 14:20:00,
2013-02-23 09:25:00,33.2,30.6,29.98,SW,221,2.4,10.4,90,0.00,CLR,,0.00,WeatherDisplay:10.37,2013-02-23 14:25:00,
2013-02-23 09:30:00,33.3,31.0,29.97,SSW,207,0.8,10.4,91,0.00,CLR,,0.00,WeatherDisplay:10.37,2013-02-23 14:30:00,
2013-02-23 09:35:00,33.6,31.3,29.97,South,172,0.2,10.4,91,0.00,CLR,,0.00,WeatherDisplay:10.37,2013-02-23 14:35:00,
2013-02-23 09:40:00,33.8,31.2,29.97,SSW,205,0.0,10.4,90,0.00,CLR,,0.00,WeatherDisplay:10.37,2013-02-23 14:40:00,
2013-02-23 09:45:00,34.1,31.5,29.97,SW,219,0.0,10.4,90,0.00,CLR,,0.00,WeatherDisplay:10.37,2013-02-23 14:45:00,
2013-02-23 09:50:00,34.4,31.5,29.96,SW,215,1.2,10.4,89,0.00,CLR,,0.00,WeatherDisplay:10.37,2013-02-23 14:50:00,
2013-02-23 09:55:00,34.4,31.5,29.96,West,269,1.6,10.4,89,0.00,CLR,,0.00,WeatherDisplay:10.37,2013-02-23 14:55:00,
2013-02-23 10:00:00,34.4,31.5,29.96,SSW,210,0.6,10.4,89,0.00,CLR,,0.00,WeatherDisplay:10.37,2013-02-23 15:00:00,
2013-02-23 10:05:00,34.6,31.7,29.96,SSE,147,0.6,10.4,89,0.00,CLR,,0.00,WeatherDisplay:10.37,2013-02-23 15:05:00,
2013-02-23 10:10:00,35.0,32.1,29.96,South,172,0.3,10.4,89,0.00,CLR,,0.00,WeatherDisplay:10.37,2013-02-23 15:10:00,
2013-02-23 10:15:00,35.1,31.9,29.96,WSW,239,1.2,10.4,88,0.00,CLR,,0.00,WeatherDisplay:10.37,2013-02-23 15:15:00,
2013-02-23 10:20:00,34.8,31.6,29.96,SW,219,2.1,10.4,88,0.00,CLR,,0.00,WeatherDisplay:10.37,2013-02-23 15:20:00,
2013-02-23 10:25:00,34.6,31.7,29.96,SW,219,0.3,10.4,89,0.00,CLR,,0.00,WeatherDisplay:10.37,2013-02-23 15:25:00,
2013-02-23 10:30:00,34.7,31.5,29.96,SSW,210,0.0,10.4,88,0.00,CLR,,0.00,WeatherDisplay:10.37,2013-02-23 15:30:00,
2013-02-23 10:35:00,34.7,31.5,29.96,SW,226,0.0,10.4,88,0.00,CLR,,0.00,WeatherDisplay:10.37,2013-02-23 15:35:00,
2013-02-23 10:40:00,34.8,31.6,29.96,South,170,0.4,10.4,88,0.00,CLR,,0.00,WeatherDisplay:10.37,2013-02-23 15:40:00,
2013-02-23 10:45:00,35.0,31.8,29.96,SSE,155,0.7,10.4,88,0.00,CLR,,0.00,WeatherDisplay:10.37,2013-02-23 15:45:00,
2013-02-23 10:50:00,35.1,31.9,29.96,SSW,195,0.0,10.4,88,0.00,CLR,,0.00,WeatherDisplay:10.37,2013-02-23 15:50:00,
2013-02-23 10:55:00,35.3,31.8,29.96,South,189,1.4,10.4,87,0.00,CLR,,0.00,WeatherDisplay:10.37,2013-02-23 15:55:00,
2013-02-23 11:00:00,36.1,32.6,29.95,SE,143,1.3,10.4,87,0.00,CLR,,0.00,WeatherDisplay:10.37,2013-02-23 16:00:00,
2013-02-23 11:05:00,36.8,32.7,29.95,South,185,1.1,10.4,85,0.00,CLR,,0.00,WeatherDisplay:10.37,2013-02-23 16:05:00,
2013-02-23 11:10:00,37.2,32.8,29.95,SSE,160,0.3,10.4,84,0.00,CLR,,0.00,WeatherDisplay:10.37,2013-02-23 16:10:00,
2013-02-23 11:15:00,37.7,33.0,29.94,SSE,155,1.5,10.4,83,0.00,CLR,,0.00,WeatherDisplay:10.37,2013-02-23 16:15:00,
2013-02-23 11:20:00,38.0,33.0,29.95,SSE,160,0.8,10.4,82,0.00,CLR,,0.00,WeatherDisplay:10.37,2013-02-23 16:20:00,
2013-02-23 11:25:00,38.3,33.0,29.94,ESE,121,0.5,10.4,81,0.00,CLR,,0.00,WeatherDisplay:10.37,2013-02-23 16:25:00,
2013-02-23 11:30:00,38.4,32.8,29.95,SW,228,1.7,10.4,80,0.00,CLR,,0.00,WeatherDisplay:10.37,2013-02-23 16:30:00,
2013-02-23 11:35:00,38.3,32.7,29.95,WSW,253,1.7,10.4,80,0.00,CLR,,0.00,WeatherDisplay:10.37,2013-02-23 16:35:00,
2013-02-23 11:40:00,38.2,32.6,29.95,SE,139,1.2,10.4,80,0.00,CLR,,0.00,WeatherDisplay:10.37,2013-02-23 16:40:00,
2013-02-23 11:45:00,38.1,32.5,29.94,SW,215,1.7,10.4,80,0.00,CLR,,0.00,WeatherDisplay:10.37,2013-02-23 16:45:00,
2013-02-23 11:50:00,38.1,32.5,29.94,SSW,212,1.1,10.4,80,0.00,CLR,,0.00,WeatherDisplay:10.37,2013-02-23 16:50:00,
2013-02-23 11:55:00,38.3,32.4,29.94,SSE,160,2.7,10.4,79,0.00,CLR,,0.00,WeatherDisplay:10.37,2013-02-23 16:55:00,
2013-02-23 12:00:00,38.2,32.3,29.93,SW,234,2.0,10.4,79,0.00,CLR,,0.00,WeatherDisplay:10.37,2013-02-23 17:00:00,
2013-02-23 12:05:00,38.3,32.4,29.93,ESE,122,1.9,10.4,79,0.00,CLR,,0.00,WeatherDisplay:10.37,2013-02-23 17:05:00,
2013-02-23 12:10:00,38.5,32.2,29.93,SE,133,1.0,10.4,78,0.00,CLR,,0.00,WeatherDisplay:10.37,2013-02-23 17:10:00,
2013-02-23 12:15:00,38.9,32.6,29.93,SW,215,0.4,10.4,78,0.00,CLR,,0.00,WeatherDisplay:10.37,2013-02-23 17:15:00,
2013-02-23 12:20:00,39.1,32.5,29.93,SSE,149,1.3,10.4,77,0.00,CLR,,0.00,WeatherDisplay:10.37,2013-02-23 17:20:00,
2013-02-23 12:25:00,39.2,32.6,29.92,SW,224,0.9,10.4,77,0.00,CLR,,0.00,WeatherDisplay:10.37,2013-02-23 17:25:00,
2013-02-23 12:30:00,39.3,32.7,29.93,SSW,212,1.3,10.4,77,0.01,RA,,0.01,WeatherDisplay:10.37,2013-02-23 17:30:00,
2013-02-23 12:35:00,39.7,33.1,29.92,SW,226,0.7,10.4,77,0.01,RA,,0.01,WeatherDisplay:10.37,2013-02-23 17:35:00,
2013-02-23 12:40:00,39.7,32.8,29.92,SSW,212,1.2,10.4,76,0.02,RA,,0.02,WeatherDisplay:10.37,2013-02-23 17:40:00,
2013-02-23 12:45:00,39.6,32.3,29.92,SW,215,1.2,10.4,75,0.03,RA,,0.03,WeatherDisplay:10.37,2013-02-23 17:45:00,
2013-02-23 12:50:00,39.5,32.2,29.92,SSE,152,1.1,10.4,75,0.03,RA,,0.03,WeatherDisplay:10.37,2013-02-23 17:50:00,
2013-02-23 12:55:00,39.7,32.4,29.92,SW,219,1.5,10.4,75,0.03,,,0.04,WeatherDisplay:10.37,2013-02-23 17:55:00,
2013-02-23 13:00:00,40.0,32.7,29.92,SSE,158,1.3,10.4,75,0.04,RA,,0.04,WeatherDisplay:10.37,2013-02-23 18:00:00,
2013-02-23 13:05:00,40.5,32.5,29.92,SSW,200,3.0,10.4,73,0.04,RA,,0.04,WeatherDisplay:10.37,2013-02-23 18:05:00,
2013-02-23 13:10:00,40.6,33.0,29.91,SW,222,0.9,10.4,74,0.05,RA,,0.05,WeatherDisplay:10.37,2013-02-23 18:10:00,
2013-02-23 13:15:00,40.7,32.7,29.91,SSE,147,0.6,10.4,73,0.05,RA,,0.05,WeatherDisplay:10.37,2013-02-23 18:15:00,
2013-02-23 13:20:00,40.5,32.5,29.91,South,176,0.2,10.4,73,0.06,RA,,0.06,WeatherDisplay:10.37,2013-02-23 18:20:00,
2013-02-23 13:25:00,40.3,32.3,29.91,SSW,204,1.7,10.4,73,0.06,RA,,0.06,WeatherDisplay:10.37,2013-02-23 18:25:00,
2013-02-23 13:30:00,40.2,32.6,29.91,South,183,0.0,10.4,74,0.05,CLR,,0.06,WeatherDisplay:10.37,2013-02-23 18:30:00,
2013-02-23 13:35:00,40.3,32.7,29.91,SW,219,1.0,10.4,74,0.05,CLR,,0.06,WeatherDisplay:10.37,2013-02-23 18:35:00,
2013-02-23 13:40:00,40.0,32.0,29.90,SW,215,2.3,10.4,73,0.05,RA,,0.07,WeatherDisplay:10.37,2013-02-23 18:40:00,
2013-02-23 13:45:00,39.8,32.2,29.90,SW,231,1.3,10.4,74,0.04,RA,,0.07,WeatherDisplay:10.37,2013-02-23 18:45:00,
2013-02-23 13:50:00,39.7,32.1,29.90,SE,145,0.1,10.4,74,0.04,CLR,,0.07,WeatherDisplay:10.37,2013-02-23 18:50:00,
2013-02-23 13:55:00,39.8,32.2,29.90,South,170,0.7,10.4,74,0.04,CLR,,0.07,WeatherDisplay:10.37,2013-02-23 18:55:00,
2013-02-23 14:00:00,39.9,32.3,29.89,South,189,0.0,10.4,74,0.03,CLR,,0.07,WeatherDisplay:10.37,2013-02-23 19:00:00,
2013-02-23 14:05:00,40.3,32.7,29.89,SSE,160,1.0,10.4,74,0.04,RA,,0.08,WeatherDisplay:10.37,2013-02-23 19:05:00,
2013-02-23 14:10:00,40.5,32.5,29.89,SSE,163,1.6,10.4,73,0.03,RA,,0.08,WeatherDisplay:10.37,2013-02-23 19:10:00,
2013-02-23 14:15:00,40.6,32.6,29.89,South,172,1.9,10.4,73,0.03,CLR,,0.08,WeatherDisplay:10.37,2013-02-23 19:15:00,
2013-02-23 14:20:00,40.3,32.3,29.89,South,172,1.6,10.4,73,0.02,CLR,,0.08,WeatherDisplay:10.37,2013-02-23 19:20:00,
2013-02-23 14:25:00,40.2,32.2,29.89,SSW,205,0.4,10.4,73,0.02,CLR,,0.08,WeatherDisplay:10.37,2013-02-23 19:25:00,
2013-02-23 14:30:00,40.3,32.3,29.89,SSW,212,1.1,10.4,73,0.03,RA,,0.09,WeatherDisplay:10.37,2013-02-23 19:30:00,
2013-02-23 14:35:00,40.3,32.3,29.89,SSE,149,0.6,10.4,73,0.03,RA,,0.09,WeatherDisplay:10.37,2013-02-23 19:35:00,
2013-02-23 14:40:00,40.3,32.3,29.89,SW,222,0.8,10.4,73,0.02,CLR,,0.09,WeatherDisplay:10.37,2013-02-23 19:40:00,
2013-02-23 14:45:00,40.3,32.3,29.89,ESE,122,1.6,10.4,73,0.02,CLR,,0.09,WeatherDisplay:10.37,2013-02-23 19:45:00,
2013-02-23 14:50:00,40.3,32.3,29.89,WSW,248,1.2,10.4,73,0.02,CLR,,0.09,WeatherDisplay:10.37,2013-02-23 19:50:00,
2013-02-23 14:55:00,40.4,32.4,29.89,SE,132,1.1,10.4,73,0.02,CLR,,0.09,WeatherDisplay:10.37,2013-02-23 19:55:00,
2013-02-23 15:00:00,40.4,32.4,29.89,SSE,149,0.0,10.4,73,0.02,CLR,,0.09,WeatherDisplay:10.37,2013-02-23 20:00:00,
2013-02-23 15:05:00,40.4,32.4,29.88,SSE,155,0.3,10.4,73,0.01,CLR,,0.09,WeatherDisplay:10.37,2013-02-23 20:05:00,
2013-02-23 15:10:00,40.3,32.3,29.88,SSE,162,1.5,10.4,73,0.02,RA,,0.10,WeatherDisplay:10.37,2013-02-23 20:10:00,
2013-02-23 15:15:00,40.3,32.7,29.88,SW,215,1.3,10.4,74,0.02,RA,,0.10,WeatherDisplay:10.37,2013-02-23 20:15:00,
2013-02-23 15:20:00,40.1,32.5,29.88,WNW,297,0.3,10.4,74,0.02,CLR,,0.10,WeatherDisplay:10.37,2013-02-23 20:20:00,
2013-02-23 15:25:00,40.0,32.4,29.88,SSE,155,0.7,10.4,74,0.02,CLR,,0.10,WeatherDisplay:10.37,2013-02-23 20:25:00,
2013-02-23 15:30:00,39.9,32.3,29.88,SW,218,0.0,10.4,74,0.01,CLR,,0.10,WeatherDisplay:10.37,2013-02-23 20:30:00,
2013-02-23 15:35:00,39.9,32.3,29.89,SSE,160,0.0,10.4,74,0.01,CLR,,0.10,WeatherDisplay:10.37,2013-02-23 20:35:00,
2013-02-23 15:40:00,40.0,32.4,29.88,SE,143,0.6,10.4,74,0.01,CLR,,0.10,WeatherDisplay:10.37,2013-02-23 20:40:00,
2013-02-23 15:45:00,39.9,32.3,29.88,SSE,150,0.1,10.4,74,0.01,CLR,,0.10,WeatherDisplay:10.37,2013-02-23 20:45:00,
2013-02-23 15:50:00,39.9,32.6,29.88,SSE,150,0.0,10.4,75,0.01,CLR,,0.10,WeatherDisplay:10.37,2013-02-23 20:50:00,
2013-02-23 15:55:00,39.7,32.4,29.88,SSE,156,0.0,10.4,75,0.01,CLR,,0.10,WeatherDisplay:10.37,2013-02-23 20:55:00,
2013-02-23 16:00:00,39.6,32.3,29.88,SSE,157,0.0,10.4,75,0.01,CLR,,0.10,WeatherDisplay:10.37,2013-02-23 21:00:00,
2013-02-23 16:05:00,39.4,32.1,29.88,SE,125,0.0,10.4,75,0.01,CLR,,0.10,WeatherDisplay:10.37,2013-02-23 21:05:00,
2013-02-23 16:10:00,39.3,32.4,29.88,SE,126,0.0,10.4,76,0.00,CLR,,0.10,WeatherDisplay:10.37,2013-02-23 21:10:00,
2013-02-23 16:15:00,39.2,32.3,29.88,SE,125,0.0,10.4,76,0.00,CLR,,0.10,WeatherDisplay:10.37,2013-02-23 21:15:00,
2013-02-23 16:20:00,39.1,32.2,29.88,SE,126,0.0,10.4,76,0.00,CLR,,0.10,WeatherDisplay:10.37,2013-02-23 21:20:00,
2013-02-23 16:25:00,38.9,32.3,29.88,SE,126,0.0,10.4,77,0.00,CLR,,0.10,WeatherDisplay:10.37,2013-02-23 21:25:00,
2013-02-23 16:30:00,38.7,32.1,29.88,SE,126,0.0,10.4,77,0.00,CLR,,0.10,WeatherDisplay:10.37,2013-02-23 21:30:00,
2013-02-23 16:35:00,38.5,32.2,29.88,SE,125,0.0,10.4,78,0.00,CLR,,0.10,WeatherDisplay:10.37,2013-02-23 21:35:00,
2013-02-23 16:40:00,38.3,32.0,29.88,SE,125,0.0,10.4,78,0.00,CLR,,0.10,WeatherDisplay:10.37,2013-02-23 21:40:00,
2013-02-23 16:45:00,38.2,32.3,29.88,SE,126,0.0,10.4,79,0.00,CLR,,0.10,WeatherDisplay:10.37,2013-02-23 21:45:00,
2013-02-23 16:51:00,38.0,32.1,29.88,SE,126,0.0,10.4,79,0.00,CLR,,0.10,WeatherDisplay:10.37,2013-02-23 21:51:00,
2013-02-23 16:56:00,37.8,32.2,29.88,SW,228,0.6,10.4,80,0.00,CLR,,0.10,WeatherDisplay:10.37,2013-02-23 21:56:00,
2013-02-23 17:01:00,37.6,31.4,29.89,West,270,3.4,10.4,78,0.00,CLR,,0.10,WeatherDisplay:10.37,2013-02-23 22:01:00,
2013-02-23 17:06:00,37.1,30.6,29.89,West,267,4.0,10.4,77,0.00,CLR,,0.10,WeatherDisplay:10.37,2013-02-23 22:06:00,
2013-02-23 17:12:00,36.9,30.4,29.89,WSW,252,0.0,9.2,77,0.00,CLR,,0.10,WeatherDisplay:10.37,2013-02-23 22:12:00,
2013-02-23 17:17:00,36.3,30.1,29.89,West,262,3.6,9.2,78,0.00,RA,,0.10,WeatherDisplay:10.37,2013-02-23 22:17:00,
2013-02-23 17:22:00,35.9,29.7,29.89,West,267,1.6,9.2,78,0.00,RA,,0.10,WeatherDisplay:10.37,2013-02-23 22:22:00,
2013-02-23 17:27:00,35.7,29.5,29.89,WSW,246,2.4,9.2,78,0.00,CLR,,0.10,WeatherDisplay:10.37,2013-02-23 22:27:00,
2013-02-23 17:32:00,35.6,29.7,29.89,SW,228,2.8,9.2,79,0.00,CLR,,0.10,WeatherDisplay:10.37,2013-02-23 22:32:00,
2013-02-23 17:37:00,35.3,29.4,29.89,WNW,295,1.8,9.2,79,0.00,CLR,,0.10,WeatherDisplay:10.37,2013-02-23 22:37:00,
2013-02-23 17:42:00,35.2,29.3,29.89,NW,311,2.2,9.2,79,0.00,CLR,,0.10,WeatherDisplay:10.37,2013-02-23 22:42:00,
2013-02-23 17:47:00,35.0,29.5,29.89,NW,314,3.8,9.2,80,0.00,CLR,,0.10,WeatherDisplay:10.37,2013-02-23 22:47:00,
2013-02-23 17:52:00,34.8,29.3,29.89,West,259,2.0,9.2,80,0.00,CLR,,0.10,WeatherDisplay:10.37,2013-02-23 22:52:00,
2013-02-23 17:57:00,34.7,29.5,29.90,West,266,3.7,9.2,81,0.00,CLR,,0.10,WeatherDisplay:10.37,2013-02-23 22:57:00,
2013-02-23 18:02:00,34.6,29.4,29.90,WSW,250,3.0,9.2,81,0.00,CLR,,0.10,WeatherDisplay:10.37,2013-02-23 23:02:00,
2013-02-23 18:07:00,34.5,29.3,29.89,WSW,250,3.5,9.2,81,0.00,CLR,,0.10,WeatherDisplay:10.37,2013-02-23 23:07:00,
2013-02-23 18:12:00,34.3,29.1,29.90,West,262,3.5,9.2,81,0.00,CLR,,0.10,WeatherDisplay:10.37,2013-02-23 23:12:00,
2013-02-23 18:17:00,34.2,29.3,29.89,West,280,2.7,9.2,82,0.00,CLR,,0.10,WeatherDisplay:10.37,2013-02-23 23:17:00,
2013-02-23 18:22:00,34.1,29.2,29.89,WSW,256,2.6,9.2,82,0.00,CLR,,0.10,WeatherDisplay:10.37,2013-02-23 23:22:00,
2013-02-23 18:27:00,33.9,29.0,29.89,WSW,248,3.8,9.2,82,0.00,CLR,,0.10,WeatherDisplay:10.37,2013-02-23 23:27:00,
2013-02-23 18:32:00,33.8,28.9,29.90,SW,224,1.6,9.2,82,0.00,CLR,,0.10,WeatherDisplay:10.37,2013-02-23 23:32:00,
2013-02-23 18:37:00,33.7,28.8,29.89,West,278,2.0,9.2,82,0.00,CLR,,0.10,WeatherDisplay:10.37,2013-02-23 23:37:00,
2013-02-23 18:42:00,33.7,28.8,29.90,WSW,242,1.8,9.2,82,0.00,CLR,,0.10,WeatherDisplay:10.37,2013-02-23 23:42:00,
2013-02-23 18:47:00,33.6,28.7,29.90,WSW,248,2.2,9.2,82,0.00,CLR,,0.10,WeatherDisplay:10.37,2013-02-23 23:47:00,
2013-02-23 18:52:00,33.6,28.7,29.91,WSW,256,3.0,9.2,82,0.00,CLR,,0.10,WeatherDisplay:10.37,2013-02-23 23:52:00,
2013-02-23 18:57:00,33.5,28.3,29.91,West,269,4.3,9.2,81,0.00,CLR,,0.10,WeatherDisplay:10.37,2013-02-23 23:57:00,
2013-02-23 19:02:00,33.4,28.2,29.91,WSW,245,2.6,9.2,81,0.00,CLR,,0.10,WeatherDisplay:10.37,2013-02-24 00:02:00,
2013-02-23 19:07:00,33.3,28.1,29.91,WSW,248,3.4,9.2,81,0.00,CLR,,0.10,WeatherDisplay:10.37,2013-02-24 00:07:00,
2013-02-23 19:12:00,33.3,28.1,29.91,WSW,248,1.7,9.2,81,0.00,CLR,,0.10,WeatherDisplay:10.37,2013-02-24 00:12:00,
2013-02-23 19:17:00,33.2,28.0,29.92,West,277,2.3,9.2,81,0.00,CLR,,0.10,WeatherDisplay:10.37,2013-02-24 00:17:00,
2013-02-23 19:22:00,33.1,27.9,29.92,WSW,257,2.4,9.2,81,0.00,CLR,,0.10,WeatherDisplay:10.37,2013-02-24 00:22:00,
2013-02-23 19:27:00,33.1,28.2,29.92,WSW,242,2.1,9.2,82,0.00,CLR,,0.10,WeatherDisplay:10.37,2013-02-24 00:27:00,
2013-02-23 19:32:00,33.1,28.2,29.92,West,264,0.1,9.2,82,0.00,CLR,,0.10,WeatherDisplay:10.37,2013-02-24 00:32:00,
2013-02-23 19:37:00,32.9,27.7,29.92,WNW,286,3.6,9.2,81,0.00,CLR,,0.10,WeatherDisplay:10.37,2013-02-24 00:37:00,
2013-02-23 19:42:00,32.9,27.1,29.92,WNW,284,4.4,11.5,79,0.00,CLR,,0.10,WeatherDisplay:10.37,2013-02-24 00:42:00,
2013-02-23 19:47:00,32.8,26.7,29.92,SW,231,4.3,11.5,78,0.00,CLR,,0.10,WeatherDisplay:10.37,2013-02-24 00:47:00,
2013-02-23 19:52:00,32.7,26.6,29.92,WSW,255,3.0,11.5,78,0.00,CLR,,0.10,WeatherDisplay:10.37,2013-02-24 00:52:00,
2013-02-23 19:57:00,32.7,26.6,29.91,West,269,3.0,11.5,78,0.00,CLR,,0.10,WeatherDisplay:10.37,2013-02-24 00:57:00,
2013-02-23 20:02:00,32.6,26.2,29.92,WSW,256,3.9,11.5,77,0.00,CLR,,0.10,WeatherDisplay:10.37,2013-02-24 01:02:00,
2013-02-23 20:07:00,32.6,26.2,29.92,West,273,6.1,11.5,77,0.00,CLR,,0.10,WeatherDisplay:10.37,2013-02-24 01:07:00,
2013-02-23 20:12:00,32.5,26.1,29.92,NW,326,2.6,11.5,77,0.00,CLR,,0.10,WeatherDisplay:10.37,2013-02-24 01:12:00,
2013-02-23 20:17:00,32.5,26.1,29.92,WSW,248,3.0,11.5,77,0.00,CLR,,0.10,WeatherDisplay:10.37,2013-02-24 01:17:00,
2013-02-23 20:22:00,32.5,26.4,29.92,WSW,239,2.1,11.5,78,0.00,CLR,,0.10,WeatherDisplay:10.37,2013-02-24 01:22:00,
2013-02-23 20:27:00,32.4,26.3,29.91,SW,232,2.8,11.5,78,0.00,CLR,,0.10,WeatherDisplay:10.37,2013-02-24 01:27:00,
2013-02-23 20:32:00,32.4,26.3,29.91,West,266,3.7,11.5,78,0.00,CLR,,0.10,WeatherDisplay:10.37,2013-02-24 01:32:00,
2013-02-23 20:37:00,32.4,26.0,29.92,West,276,3.5,11.5,77,0.00,CLR,,0.10,WeatherDisplay:10.37,2013-02-24 01:37:00,
2013-02-23 20:42:00,32.4,26.3,29.92,WSW,256,2.8,11.5,78,0.00,CLR,,0.10,WeatherDisplay:10.37,2013-02-24 01:42:00,
2013-02-23 20:47:00,32.4,26.3,29.92,West,269,3.9,11.5,78,0.00,CLR,,0.10,WeatherDisplay:10.37,2013-02-24 01:47:00,
2013-02-23 20:52:00,32.3,26.2,29.92,West,276,1.8,11.5,78,0.00,CLR,,0.10,WeatherDisplay:10.37,2013-02-24 01:52:00,
2013-02-23 20:57:00,32.3,25.9,29.91,WSW,245,4.0,11.5,77,0.00,CLR,,0.10,WeatherDisplay:10.37,2013-02-24 01:57:00,
2013-02-23 21:02:00,32.3,25.9,29.92,SW,219,4.7,11.5,77,0.00,CLR,,0.10,WeatherDisplay:10.37,2013-02-24 02:02:00,
2013-02-23 21:07:00,32.3,25.9,29.92,WSW,245,1.9,11.5,77,0.00,CLR,,0.10,WeatherDisplay:10.37,2013-02-24 02:07:00,
2013-02-23 21:12:00,32.3,25.6,29.92,SW,219,5.3,11.5,76,0.00,CLR,,0.10,WeatherDisplay:10.37,2013-02-24 02:12:00,
2013-02-23 21:17:00,32.3,25.9,29.92,WSW,253,1.7,11.5,77,0.00,CLR,,0.10,WeatherDisplay:10.37,2013-02-24 02:17:00,
2013-02-23 21:22:00,32.3,25.9,29.92,WSW,238,2.9,11.5,77,0.00,CLR,,0.10,WeatherDisplay:10.37,2013-02-24 02:22:00,
2013-02-23 21:27:00,32.3,25.6,29.92,SSW,212,4.6,11.5,76,0.00,CLR,,0.10,WeatherDisplay:10.37,2013-02-24 02:27:00,
2013-02-23 21:32:00,32.3,25.6,29.91,SW,222,1.5,11.5,76,0.00,CLR,,0.10,WeatherDisplay:10.37,2013-02-24 02:32:00,
2013-02-23 21:37:00,32.3,25.3,29.91,WSW,245,2.1,11.5,75,0.00,CLR,,0.10,WeatherDisplay:10.37,2013-02-24 02:37:00,
2013-02-23 21:42:00,32.3,25.6,29.91,SSW,208,1.0,11.5,76,0.00,CLR,,0.10,WeatherDisplay:10.37,2013-02-24 02:42:00,
2013-02-23 21:47:00,32.3,25.3,29.91,WSW,254,1.4,11.5,75,0.00,CLR,,0.10,WeatherDisplay:10.37,2013-02-24 02:47:00,
2013-02-23 21:52:00,32.3,25.6,29.91,SW,217,0.9,11.5,76,0.00,CLR,,0.10,WeatherDisplay:10.37,2013-02-24 02:52:00,
2013-02-23 21:57:00,32.3,25.3,29.91,SW,214,1.7,11.5,75,0.00,CLR,,0.10,WeatherDisplay:10.37,2013-02-24 02:57:00,
2013-02-23 22:02:00,32.3,24.9,29.91,SW,219,1.7,11.5,74,0.00,CLR,,0.10,WeatherDisplay:10.37,2013-02-24 03:02:00,
2013-02-23 22:07:00,32.3,24.9,29.91,South,190,1.2,11.5,74,0.00,CLR,,0.10,WeatherDisplay:10.37,2013-02-24 03:07:00,
2013-02-23 22:12:00,32.3,24.6,29.90,SW,226,2.5,11.5,73,0.00,CLR,,0.10,WeatherDisplay:10.37,2013-02-24 03:12:00,
2013-02-23 22:17:00,32.3,24.9,29.90,SW,224,3.3,11.5,74,0.00,CLR,,0.10,WeatherDisplay:10.37,2013-02-24 03:17:00,
2013-02-23 22:22:00,32.3,24.6,29.90,WSW,242,1.2,11.5,73,0.00,CLR,,0.10,WeatherDisplay:10.37,2013-02-24 03:22:00,
2013-02-23 22:27:00,32.3,24.6,29.90,SSW,211,2.9,11.5,73,0.00,CLR,,0.10,WeatherDisplay:10.37,2013-02-24 03:27:00,
2013-02-23 22:32:00,32.3,24.6,29.90,SW,219,2.7,11.5,73,0.00,CLR,,0.10,WeatherDisplay:10.37,2013-02-24 03:32:00,
2013-02-23 22:37:00,32.3,24.6,29.90,SW,221,4.6,11.5,73,0.00,CLR,,0.10,WeatherDisplay:10.37,2013-02-24 03:37:00,
2013-02-23 22:42:00,32.3,24.6,29.89,SW,217,3.1,11.5,73,0.00,CLR,,0.10,WeatherDisplay:10.37,2013-02-24 03:42:00,
2013-02-23 22:47:00,32.2,24.5,29.89,SW,231,2.7,11.5,73,0.00,CLR,,0.10,WeatherDisplay:10.37,2013-02-24 03:47:00,
2013-02-23 22:52:00,32.2,24.8,29.90,SW,217,1.6,11.5,74,0.00,CLR,,0.10,WeatherDisplay:10.37,2013-02-24 03:52:00,
2013-02-23 22:57:00,32.2,24.8,29.89,SW,224,1.1,11.5,74,0.00,CLR,,0.10,WeatherDisplay:10.37,2013-02-24 03:57:00,
2013-02-23 23:02:00,32.1,24.4,29.89,WSW,239,1.9,11.5,73,0.00,CLR,,0.10,WeatherDisplay:10.37,2013-02-24 04:02:00,
2013-02-23 23:07:00,32.1,24.7,29.88,WSW,239,2.5,11.5,74,0.00,CLR,,0.10,WeatherDisplay:10.37,2013-02-24 04:07:00,
2013-02-23 23:12:00,32.1,24.4,29.88,NW,311,3.2,11.5,73,0.00,CLR,,0.10,WeatherDisplay:10.37,2013-02-24 04:12:00,
2013-02-23 23:17:00,32.1,24.4,29.88,SW,229,2.2,11.5,73,0.00,CLR,,0.10,WeatherDisplay:10.37,2013-02-24 04:17:00,
2013-02-23 23:22:00,32.0,24.6,29.88,West,262,1.0,11.5,74,0.00,CLR,,0.10,WeatherDisplay:10.37,2013-02-24 04:22:00,
2013-02-23 23:27:00,32.0,24.6,29.88,WSW,240,1.8,11.5,74,0.00,CLR,,0.10,WeatherDisplay:10.37,2013-02-24 04:27:00,
2013-02-23 23:32:00,31.9,24.6,29.88,SW,222,1.9,11.5,74,0.00,CLR,,0.10,WeatherDisplay:10.37,2013-02-24 04:32:00,
2013-02-23 23:37:00,31.9,24.6,29.88,SW,229,2.5,11.5,74,0.00,CLR,,0.10,WeatherDisplay:10.37,2013-02-24 04:37:00,
2013-02-23 23:42:00,31.9,24.6,29.88,SW,231,1.8,11.5,74,0.00,CLR,,0.10,WeatherDisplay:10.37,2013-02-24 04:42:00,
2013-02-23 23:47:00,31.9,24.6,29.88,South,183,2.1,11.5,74,0.00,CLR,,0.10,WeatherDisplay:10.37,2013-02-24 04:47:00,
2013-02-23 23:52:00,31.8,24.5,29.88,WSW,242,1.3,4.0,74,0.00,CLR,,0.10,WeatherDisplay:10.37,2013-02-24 04:52:00,
2013-02-23 23:57:00,31.9,24.6,29.88,WSW,242,1.1,7.0,74,0.00,CLR,,0.10,WeatherDisplay:10.37,2013-02-24 04:57:00,